YD6HRD-13 Weather Reports


time (UTC)temp
C
wind
direction
speed
KPH
gust
KPH
rain 1hr
cm
rain 24hr
cm
rain mn
cm
humidity
%
barometer
mb
20260505082722 31 0.0 0.0 0.00 0.00 0.00 75 1016.7
20260505082223 32 0.0 0.0 0.00 0.00 0.00 75 1016.7
20260505081723 31 0.0 0.0 0.00 0.00 0.00 76 1016.9
20260505081222 32 0.0 0.0 0.00 0.00 0.00 75 1016.9
20260505080726 31 0.0 0.0 0.00 0.00 0.00 75 1016.9
20260505080223 32 0.0 0.0 0.00 0.00 0.00 75 1016.9
20260505075723 32 0.0 0.0 0.00 0.00 0.00 75 1017.1
20260505075222 31 0.0 0.0 0.00 0.00 0.00 74 1017.2
20260505074723 32 0.0 0.0 0.00 0.00 0.00 76 1017.3
20260505074223 32 0.0 0.0 0.00 0.00 0.00 74 1017.4
20260505073722 31 0.0 0.0 0.00 0.00 0.00 76 1017.5
20260505073223 32 0.0 0.0 0.00 0.00 0.00 74 1017.5
20260505072723 31 0.0 0.0 0.00 0.00 0.00 76 1017.6
20260505072223 31 0.0 0.0 0.00 0.00 0.00 75 1017.6
20260505071722 32 0.0 0.0 0.00 0.00 0.00 75 1017.7
20260505071223 32 0.0 0.0 0.00 0.00 0.00 76 1017.7
20260505070723 32 0.0 0.0 0.00 0.00 0.00 74 1017.9
20260505070222 32 0.0 0.0 0.00 0.00 0.00 74 1017.9
20260505065723 32 0.0 0.0 0.00 0.00 0.00 74 1018.0
20260505065223 32 0.0 0.0 0.00 0.00 0.00 74 1018.1
20260505064723 32 0.0 0.0 0.00 0.00 0.00 72 1018.1
20260505064222 32 0.0 0.0 0.00 0.00 0.00 74 1018.2
20260505063723 31 0.0 0.0 0.00 0.00 0.00 74 1018.4
20260505063223 32 0.0 0.0 0.00 0.00 0.00 74 1018.4
20260505062723 32 0.0 0.0 0.00 0.00 0.00 74 1018.5
20260505062222 32 0.0 0.0 0.00 0.00 0.00 74 1018.6
20260505061723 32 0.0 0.0 0.00 0.00 0.00 75 1018.8
20260505061226 32 0.0 0.0 0.00 0.00 0.00 75 1018.9
20260505060722 32 0.0 0.0 0.00 0.00 0.00 75 1018.9
20260505060223 32 0.0 0.0 0.00 0.00 0.00 76 1018.9
20260505055723 32 0.0 0.0 0.00 0.00 0.00 75 1019.0
20260505055223 32 0.0 0.0 0.00 0.00 0.00 77 1019.1
20260505054722 32 0.0 0.0 0.00 0.00 0.00 76 1019.2
20260505054223 31 0.0 0.0 0.00 0.00 0.00 77 1019.4
20260505053722 32 0.0 0.0 0.00 0.00 0.00 77 1019.4
20260505053223 32 0.0 0.0 0.00 0.00 0.00 77 1019.5
20260505052722 32 0.0 0.0 0.00 0.00 0.00 77 1019.6
20260505052223 32 0.0 0.0 0.00 0.00 0.00 77 1019.7
20260505051723 31 0.0 0.0 0.00 0.00 0.00 77 1019.7
20260505051222 32 0.0 0.0 0.00 0.00 0.00 78 1019.9
20260505050723 32 0.0 0.0 0.00 0.00 0.00 79 1019.9
20260505050222 32 0.0 0.0 0.00 0.00 0.00 77 1020.0
20260505041722 30 0.0 0.0 0.00 0.00 0.00 77 1020.9
20260505041223 30 0.0 0.0 0.00 0.00 0.00 81 1020.9
20260505040722 30 0.0 0.0 0.00 0.00 0.00 81 1020.9
20260505040223 30 0.0 0.0 0.00 0.00 0.00 80 1021.0
20260505035722 30 0.0 0.0 0.00 0.00 0.00 80 1021.0
20260505035223 30 0.0 0.0 0.00 0.00 0.00 80 1021.2
20260505034723 30 0.0 0.0 0.00 0.00 0.00 81 1021.3
20260505034222 29 0.0 0.0 0.00 0.00 0.00 83 1021.3
20260505033723 29 0.0 0.0 0.00 0.00 0.00 83 1021.2
20260505033222 29 0.0 0.0 0.00 0.00 0.00 83 1021.3
20260505032723 29 0.0 0.0 0.00 0.00 0.00 83 1021.3
20260505032222 28 0.0 0.0 0.00 0.00 0.00 84 1021.4
20260505031723 28 0.0 0.0 0.00 0.00 0.00 83 1021.4
20260505031223 29 0.0 0.0 0.00 0.00 0.00 84 1021.3
20260505030722 29 0.0 0.0 0.00 0.00 0.00 84 1021.4
20260505030223 28 0.0 0.0 0.00 0.00 0.00 84 1021.4
20260505025722 28 0.0 0.0 0.00 0.00 0.00 84 1021.4
20260505025223 28 0.0 0.0 0.00 0.00 0.00 85 1021.5
20260505024722 28 0.0 0.0 0.00 0.00 0.00 84 1021.4
20260505024223 28 0.0 0.0 0.00 0.00 0.00 85 1021.4
20260505023723 28 0.0 0.0 0.00 0.00 0.00 85 1021.3
20260505023222 28 0.0 0.0 0.00 0.00 0.00 85 1021.2
20260505022723 28 0.0 0.0 0.00 0.00 0.00 86 1021.2
20260505022222 28 0.0 0.0 0.00 0.00 0.00 87 1021.3
20260505021723 28 0.0 0.0 0.00 0.00 0.00 87 1021.3
20260505021222 28 0.0 0.0 0.00 0.00 0.00 88 1021.3
20260505020723 28 0.0 0.0 0.00 0.00 0.00 88 1021.2
20260505020223 27 0.0 0.0 0.00 0.00 0.00 89 1021.1
20260505015722 27 0.0 0.0 0.00 0.00 0.00 89 1021.1
20260505015223 27 0.0 0.0 0.00 0.00 0.00 89 1021.1
20260505014722 27 0.0 0.0 0.00 0.00 0.00 89 1021.1
20260505014223 27 0.0 0.0 0.00 0.00 0.00 89 1021.2
20260505013722 27 0.0 0.0 0.00 0.00 0.00 89 1021.2
20260505013223 27 0.0 0.0 0.00 0.00 0.00 89 1021.1
20260505012723 27 0.0 0.0 0.00 0.00 0.00 90 1021.1
20260505012222 27 0.0 0.0 0.00 0.00 0.00 89 1021.1
20260505011723 27 0.0 0.0 0.00 0.00 0.00 89 1021.0
20260505011222 26 0.0 0.0 0.00 0.00 0.00 90 1020.9
20260505010723 26 0.0 0.0 0.00 0.00 0.00 89 1020.8
20260505010222 26 0.0 0.0 0.00 0.00 0.00 89 1020.7
20260505005723 26 0.0 0.0 0.00 0.00 0.00 89 1020.8
20260505005223 26 0.0 0.0 0.00 0.00 0.00 89 1020.8
20260505004722 26 0.0 0.0 0.00 0.00 0.00 89 1020.8
20260505004223 26 0.0 0.0 0.00 0.00 0.00 89 1020.7
20260505003722 26 0.0 0.0 0.00 0.00 0.00 89 1020.7
20260505003223 26 0.0 0.0 0.00 0.00 0.00 89 1020.6
20260505002722 26 0.0 0.0 0.00 0.00 0.00 90 1020.5
20260505002223 26 0.0 0.0 0.00 0.00 0.00 90 1020.4
20260505001722 26 0.0 0.0 0.00 0.00 0.00 90 1020.3
20260505001222 26 0.0 0.0 0.00 0.00 0.00 89 1020.2
20260505000723 26 0.0 0.0 0.00 0.00 0.00 89 1020.1
20260505000223 26 0.0 0.0 0.00 0.00 0.00 89 1020.1
20260504235722 26 0.0 0.0 0.00 0.00 0.00 89 1020.0
20260504235223 26 0.0 0.0 0.00 0.00 0.00 90 1019.9
20260504234722 26 0.0 0.0 0.00 0.00 0.00 90 1019.8
20260504234223 26 0.0 0.0 0.00 0.00 0.00 90 1019.8
20260504233722 26 0.0 0.0 0.00 0.00 0.00 90 1019.7
20260504233223 26 0.0 0.0 0.00 0.00 0.00 90 1019.7
20260504232723 26 0.0 0.0 0.00 0.00 0.00 90 1019.6
20260504232223 26 0.0 0.0 0.00 0.00 0.00 90 1019.7
20260504231722 26 0.0 0.0 0.00 0.00 0.00 89 1019.7
20260504231223 26 0.0 0.0 0.00 0.00 0.00 90 1019.7
20260504230723 26 0.0 0.0 0.00 0.00 0.00 89 1019.7
20260504230222 26 0.0 0.0 0.00 0.00 0.00 89 1019.6
20260504225723 26 0.0 0.0 0.00 0.00 0.00 89 1019.6
20260504225222 26 0.0 0.0 0.00 0.00 0.00 89 1019.6
20260504224723 26 0.0 0.0 0.00 0.00 0.00 89 1019.5
20260504224222 26 0.0 0.0 0.00 0.00 0.00 89 1019.5
20260504223723 26 0.0 0.0 0.00 0.00 0.00 89 1019.5
20260504223223 26 0.0 0.0 0.00 0.00 0.00 89 1019.5
20260504222722 26 0.0 0.0 0.00 0.00 0.00 89 1019.4
20260504222223 26 0.0 0.0 0.00 0.00 0.00 89 1019.4
20260504221723 26 0.0 0.0 0.00 0.00 0.00 89 1019.3
20260504221223 26 0.0 0.0 0.00 0.00 0.00 89 1019.2
20260504220722 26 0.0 0.0 0.00 0.00 0.00 89 1019.1
20260504220223 26 0.0 0.0 0.00 0.00 0.00 89 1019.1
20260504215723 26 0.0 0.0 0.00 0.00 0.00 89 1019.1
20260504215222 26 0.0 0.0 0.00 0.00 0.00 89 1019.1
20260504214723 26 0.0 0.0 0.00 0.00 0.00 89 1019.2
20260504214223 26 0.0 0.0 0.00 0.00 0.00 89 1019.2
20260504213723 26 0.0 0.0 0.00 0.00 0.00 89 1019.2
20260504213222 26 0.0 0.0 0.00 0.00 0.00 89 1019.3
20260504212723 26 0.0 0.0 0.00 0.00 0.00 89 1019.3
20260504212223 26 0.0 0.0 0.00 0.00 0.00 89 1019.3
20260504211722 26 0.0 0.0 0.00 0.00 0.00 89 1019.2
20260504211223 26 0.0 0.0 0.00 0.00 0.00 89 1019.3
20260504210722 26 0.0 0.0 0.00 0.00 0.00 89 1019.4
20260504210223 26 0.0 0.0 0.00 0.00 0.00 89 1019.4
20260504205722 26 0.0 0.0 0.00 0.00 0.00 89 1019.5
20260504205223 26 0.0 0.0 0.00 0.00 0.00 89 1019.5
20260504204723 26 0.0 0.0 0.00 0.00 0.00 89 1019.5
20260504204222 26 0.0 0.0 0.00 0.00 0.00 89 1019.5
20260504203723 26 0.0 0.0 0.00 0.00 0.00 89 1019.6
20260504203222 26 0.0 0.0 0.00 0.00 0.00 89 1019.6
20260504202723 27 0.0 0.0 0.00 0.00 0.00 88 1019.6
20260504202223 27 0.0 0.0 0.00 0.00 0.00 88 1019.6
20260504201723 26 0.0 0.0 0.00 0.00 0.00 89 1019.7
20260504201223 27 0.0 0.0 0.00 0.00 0.00 88 1019.6
20260504200722 27 0.0 0.0 0.00 0.00 0.00 89 1019.7
20260504200223 26 0.0 0.0 0.00 0.00 0.00 89 1019.7
20260504195722 27 0.0 0.0 0.00 0.00 0.00 88 1019.7
20260504195223 27 0.0 0.0 0.00 0.00 0.00 88 1019.6
20260504194722 26 0.0 0.0 0.00 0.00 0.00 89 1019.6
20260504194223 27 0.0 0.0 0.00 0.00 0.00 88 1019.6
20260504193722 27 0.0 0.0 0.00 0.00 0.00 88 1019.7
20260504193223 27 0.0 0.0 0.00 0.00 0.00 88 1019.7
20260504192722 27 0.0 0.0 0.00 0.00 0.00 88 1019.7
20260504192223 27 0.0 0.0 0.00 0.00 0.00 88 1019.7
20260504191723 27 0.0 0.0 0.00 0.00 0.00 88 1019.7
20260504191222 27 0.0 0.0 0.00 0.00 0.00 88 1019.7
20260504190723 27 0.0 0.0 0.00 0.00 0.00 88 1019.7
20260504190223 27 0.0 0.0 0.00 0.00 0.00 87 1019.8
20260504185723 27 0.0 0.0 0.00 0.00 0.00 87 1019.8
20260504185222 27 0.0 0.0 0.00 0.00 0.00 87 1019.9
20260504184723 27 0.0 0.0 0.00 0.00 0.00 87 1020.0
20260504184223 27 0.0 0.0 0.00 0.00 0.00 87 1020.0
20260504183722 27 0.0 0.0 0.00 0.00 0.00 87 1020.1
20260504183223 27 0.0 0.0 0.00 0.00 0.00 86 1020.1
20260504182723 27 0.0 0.0 0.00 0.00 0.00 86 1020.2
20260504182223 27 0.0 0.0 0.00 0.00 0.00 87 1020.3
20260504181722 27 0.0 0.0 0.00 0.00 0.00 89 1020.4
20260504181223 26 0.0 0.0 0.00 0.00 0.00 90 1020.5
20260504180723 26 0.0 0.0 0.00 0.00 0.00 89 1020.6
20260504180222 26 0.0 0.0 0.00 0.00 0.00 89 1020.7
20260504175723 27 0.0 0.0 0.00 0.00 0.00 87 1020.7
20260504175223 27 0.0 0.0 0.00 0.00 0.00 89 1020.7
20260504174723 27 0.0 0.0 0.00 0.00 0.00 87 1020.8
20260504174223 27 0.0 0.0 0.00 0.00 0.00 88 1020.9
20260504173723 27 0.0 0.0 0.00 0.00 0.00 86 1020.9
20260504173223 27 0.0 0.0 0.00 0.00 0.00 87 1021.0
20260504172722 27 0.0 0.0 0.00 0.00 0.00 87 1021.2
20260504172223 27 0.0 0.0 0.00 0.00 0.00 87 1021.2
20260504171723 27 0.0 0.0 0.00 0.00 0.00 88 1021.2
20260504171223 27 0.0 0.0 0.00 0.00 0.00 87 1021.2
20260504170722 27 0.0 0.0 0.00 0.00 0.00 87 1021.2
20260504170223 27 0.0 0.0 0.00 0.00 0.00 87 1021.1
20260504160223 28 0.0 0.0 0.00 0.00 0.00 85 1020.9
20260504150723 27 0.0 0.0 0.00 0.00 0.00 85 1021.1
20260504150222 27 0.0 0.0 0.00 0.00 0.00 85 1021.1
20260504141223 27 0.0 0.0 0.00 0.00 0.00 84 1021.2
20260504140722 28 0.0 0.0 0.00 0.00 0.00 83 1021.1
20260504140223 28 0.0 0.0 0.00 0.00 0.00 83 1021.0
20260504130724 28 0.0 0.0 0.00 0.00 0.00 82 1020.0
20260504130223 28 0.0 0.0 0.00 0.00 0.00 82 1019.8
20260504120222 28 0.0 0.0 0.00 0.00 0.00 81 1019.0
20260504110222 29 0.0 0.0 0.00 0.00 0.00 80 1017.8
20260504100222 29 0.0 0.0 0.00 0.00 0.00 78 1018.1